{"data":{"norad_id":63444,"epoch":"2026-09-20T10:50:26.610432Z","epoch_age_seconds":159671,"freshness":"FRESH","line1":"1 63444U 25069M   26263.45169688  .00011640  00000+0  35504-3 0  9990","line2":"2 63444  53.1599 310.0110 0001084  73.6300 286.4822 15.34406688 83270","mean_motion":15.34406688,"eccentricity":0.0001084,"inclination_deg":53.1599,"raan_deg":310.011,"arg_perigee_deg":73.63,"mean_anomaly_deg":286.4822,"bstar":0.00035504,"rev_number":8327,"period_min":93.847349028239,"perigee_km":461.94181720662,"apogee_km":463.42490706113,"semimajor_km":6840.8203621339,"source":"CELESTRAK","updated_at":"2026-09-21T09:00:35.003404Z"}}